Time,TemperatureF,DewpointF,PressureIn,WindDirection,WindDirectionDegrees,WindSpeedMPH,WindSpeedGustMPH,Humidity,HourlyPrecipIn,Conditions,Clouds,dailyrainin,SoftwareType,DateUTC
2013-06-18 00:02:00,65.0,7.0,-100.00,North,0,0.0,2.0,10,-99.99,,,-99.99,,2013-06-18 06:02:00,
2013-06-18 00:11:00,65.0,7.0,-100.00,North,0,0.0,2.0,10,-99.99,,,-99.99,,2013-06-18 06:11:00,
2013-06-18 00:23:00,64.0,6.0,-100.00,SW,224,3.0,3.0,9,-99.99,,,-99.99,,2013-06-18 06:23:00,
2013-06-18 00:32:00,64.0,6.0,-100.00,WSW,257,2.0,3.0,9,-99.99,,,-99.99,,2013-06-18 06:32:00,
2013-06-18 00:43:00,61.0,8.0,-100.00,West,264,2.0,3.0,11,-99.99,,,-99.99,,2013-06-18 06:43:00,
2013-06-18 00:52:00,61.0,8.0,-100.00,West,264,2.0,3.0,11,-99.99,,,-99.99,,2013-06-18 06:52:00,
2013-06-18 01:02:00,60.0,9.0,-100.00,West,271,3.0,4.0,12,-99.99,,,-99.99,,2013-06-18 07:02:00,
2013-06-18 01:12:00,61.0,9.0,-100.00,West,275,2.0,2.0,12,-99.99,,,-99.99,,2013-06-18 07:12:00,
2013-06-18 01:22:00,68.0,5.0,-100.00,South,169,7.0,9.0,8,-99.99,,,-99.99,,2013-06-18 07:22:00,
2013-06-18 01:33:00,69.0,5.0,-100.00,SW,219,6.0,11.0,7,-99.99,,,-99.99,,2013-06-18 07:33:00,
2013-06-18 01:43:00,71.0,4.0,-100.00,SW,229,11.0,17.0,7,-99.99,,,-99.99,,2013-06-18 07:43:00,
2013-06-18 01:52:00,71.0,4.0,-100.00,SW,229,11.0,17.0,7,-99.99,,,-99.99,,2013-06-18 07:52:00,
2013-06-18 02:01:00,72.0,5.0,-100.00,WSW,241,10.0,15.0,7,-99.99,,,-99.99,,2013-06-18 08:01:00,
2013-06-18 02:23:00,69.0,5.0,-100.00,SW,234,10.0,14.0,7,-99.99,,,-99.99,,2013-06-18 08:23:00,
2013-06-18 02:32:00,69.0,5.0,-100.00,SW,234,10.0,14.0,7,-99.99,,,-99.99,,2013-06-18 08:32:00,
2013-06-18 02:43:00,68.0,6.0,-100.00,SW,236,8.0,10.0,8,-99.99,,,-99.99,,2013-06-18 08:43:00,
2013-06-18 02:52:00,69.0,5.0,-100.00,WSW,238,11.0,13.0,7,-99.99,,,-99.99,,2013-06-18 08:52:00,
2013-06-18 03:01:00,70.0,5.0,-100.00,SW,234,11.0,16.0,7,-99.99,,,-99.99,,2013-06-18 09:01:00,
2013-06-18 03:11:00,69.0,6.0,-100.00,WSW,238,10.0,18.0,8,-99.99,,,-99.99,,2013-06-18 09:11:00,
2013-06-18 03:22:00,69.0,6.0,-100.00,WSW,238,10.0,18.0,8,-99.99,,,-99.99,,2013-06-18 09:22:00,
2013-06-18 03:34:00,69.0,5.0,-100.00,SW,234,13.0,16.0,7,-99.99,,,-99.99,,2013-06-18 09:34:00,
2013-06-18 03:42:00,70.0,5.0,-100.00,WSW,243,13.0,20.0,7,-99.99,,,-99.99,,2013-06-18 09:42:00,
2013-06-18 03:53:00,70.0,5.0,-100.00,WSW,243,13.0,20.0,7,-99.99,,,-99.99,,2013-06-18 09:53:00,
2013-06-18 04:11:00,69.0,5.0,-100.00,WSW,239,12.0,16.0,8,-99.99,,,-99.99,,2013-06-18 10:11:00,
2013-06-18 04:22:00,66.0,7.0,-100.00,West,262,12.0,18.0,9,-99.99,,,-99.99,,2013-06-18 10:22:00,
2013-06-18 04:33:00,66.0,6.0,-100.00,West,259,13.0,18.0,9,-99.99,,,-99.99,,2013-06-18 10:33:00,
2013-06-18 04:43:00,69.0,6.0,-100.00,WSW,258,15.0,20.0,8,-99.99,,,-99.99,,2013-06-18 10:43:00,
2013-06-18 04:53:00,69.0,6.0,-100.00,WSW,258,15.0,20.0,8,-99.99,,,-99.99,,2013-06-18 10:53:00,
2013-06-18 05:02:00,68.0,5.0,-100.00,WSW,250,13.0,16.0,8,-99.99,,,-99.99,,2013-06-18 11:02:00,
2013-06-18 05:11:00,68.0,5.0,-100.00,WSW,250,13.0,16.0,8,-99.99,,,-99.99,,2013-06-18 11:11:00,
2013-06-18 05:22:00,67.0,5.0,-100.00,WSW,248,13.0,16.0,8,-99.99,,,-99.99,,2013-06-18 11:22:00,
2013-06-18 05:32:00,67.0,5.0,-100.00,WSW,248,13.0,16.0,8,-99.99,,,-99.99,,2013-06-18 11:32:00,
2013-06-18 05:42:00,67.0,5.0,-100.00,WSW,246,11.0,17.0,8,-99.99,,,-99.99,,2013-06-18 11:42:00,
2013-06-18 05:52:00,67.0,5.0,-100.00,WSW,246,11.0,17.0,8,-99.99,,,-99.99,,2013-06-18 11:52:00,
2013-06-18 06:01:00,67.0,6.0,-100.00,WSW,245,10.0,13.0,8,-99.99,,,-99.99,,2013-06-18 12:01:00,
2013-06-18 06:11:00,67.0,6.0,-100.00,WSW,251,11.0,15.0,8,-99.99,,,-99.99,,2013-06-18 12:11:00,
2013-06-18 06:22:00,67.0,6.0,-100.00,WSW,245,12.0,16.0,8,-99.99,,,-99.99,,2013-06-18 12:22:00,
2013-06-18 06:32:00,67.0,6.0,-100.00,WSW,245,12.0,16.0,8,-99.99,,,-99.99,,2013-06-18 12:32:00,
2013-06-18 06:42:00,67.0,7.0,-100.00,WSW,242,13.0,19.0,8,-99.99,,,-99.99,,2013-06-18 12:42:00,
2013-06-18 06:52:00,67.0,7.0,-100.00,WSW,242,13.0,19.0,8,-99.99,,,-99.99,,2013-06-18 12:52:00,
2013-06-18 07:01:00,67.0,7.0,-100.00,WSW,246,14.0,20.0,9,-99.99,,,-99.99,,2013-06-18 13:01:00,
2013-06-18 07:11:00,68.0,7.0,-100.00,WSW,244,15.0,17.0,9,-99.99,,,-99.99,,2013-06-18 13:11:00,
2013-06-18 07:22:00,68.0,8.0,-100.00,WSW,252,16.0,19.0,9,-99.99,,,-99.99,,2013-06-18 13:22:00,
2013-06-18 07:33:00,68.0,8.0,-100.00,WSW,243,12.0,21.0,9,-99.99,,,-99.99,,2013-06-18 13:33:00,
2013-06-18 07:43:00,68.0,8.0,-100.00,WSW,245,15.0,22.0,9,-99.99,,,-99.99,,2013-06-18 13:43:00,
2013-06-18 07:52:00,69.0,9.0,-100.00,WSW,252,17.0,24.0,9,-99.99,,,-99.99,,2013-06-18 13:52:00,
2013-06-18 08:02:00,69.0,8.0,-100.00,WSW,252,16.0,22.0,9,-99.99,,,-99.99,,2013-06-18 14:02:00,
2013-06-18 08:11:00,69.0,9.0,-100.00,WSW,254,18.0,25.0,9,-99.99,,,-99.99,,2013-06-18 14:11:00,
2013-06-18 08:22:00,69.0,9.0,-100.00,WSW,247,17.0,23.0,9,-99.99,,,-99.99,,2013-06-18 14:22:00,
2013-06-18 08:33:00,69.0,9.0,-100.00,WSW,247,17.0,23.0,9,-99.99,,,-99.99,,2013-06-18 14:33:00,
2013-06-18 08:43:00,69.0,10.0,-100.00,West,259,17.0,23.0,9,-99.99,,,-99.99,,2013-06-18 14:43:00,
2013-06-18 08:52:00,69.0,10.0,-100.00,West,259,17.0,23.0,9,-99.99,,,-99.99,,2013-06-18 14:52:00,
2013-06-18 09:01:00,70.0,10.0,-100.00,West,264,16.0,25.0,9,-99.99,,,-99.99,,2013-06-18 15:01:00,
2013-06-18 09:11:00,70.0,10.0,-100.00,WSW,252,17.0,23.0,9,-99.99,,,-99.99,,2013-06-18 15:11:00,
2013-06-18 09:22:00,70.0,10.0,-100.00,WSW,258,17.0,25.0,9,-99.99,,,-99.99,,2013-06-18 15:22:00,
2013-06-18 09:33:00,70.0,11.0,-100.00,WSW,253,16.0,23.0,9,-99.99,,,-99.99,,2013-06-18 15:33:00,
2013-06-18 09:42:00,70.0,11.0,-100.00,WSW,254,16.0,24.0,9,-99.99,,,-99.99,,2013-06-18 15:42:00,
2013-06-18 09:52:00,70.0,11.0,-100.00,WSW,254,16.0,24.0,9,-99.99,,,-99.99,,2013-06-18 15:52:00,
2013-06-18 10:01:00,71.0,10.0,-100.00,WSW,252,17.0,29.0,9,-99.99,,,-99.99,,2013-06-18 16:01:00,
2013-06-18 10:11:00,71.0,10.0,-100.00,WSW,252,17.0,29.0,9,-99.99,,,-99.99,,2013-06-18 16:11:00,
2013-06-18 10:22:00,71.0,12.0,-100.00,West,270,14.0,22.0,10,-99.99,,,-99.99,,2013-06-18 16:22:00,
2013-06-18 10:33:00,71.0,12.0,-100.00,West,270,14.0,22.0,10,-99.99,,,-99.99,,2013-06-18 16:33:00,
2013-06-18 10:43:00,72.0,12.0,-100.00,West,271,16.0,22.0,9,-99.99,,,-99.99,,2013-06-18 16:43:00,
2013-06-18 10:50:00,74.0,13.0,-100.00,West,268,12.0,20.0,9,-99.99,,,-99.99,,2013-06-18 16:50:00,
2013-06-18 10:52:00,72.0,12.0,-100.00,West,265,15.0,20.0,9,-99.99,,,-99.99,,2013-06-18 16:52:00,
2013-06-18 11:01:00,73.0,12.0,-100.00,West,272,15.0,20.0,9,-99.99,,,-99.99,,2013-06-18 17:01:00,
2013-06-18 11:11:00,73.0,12.0,-100.00,West,272,15.0,20.0,9,-99.99,,,-99.99,,2013-06-18 17:11:00,
2013-06-18 11:22:00,74.0,13.0,-100.00,West,268,12.0,20.0,9,-99.99,,,-99.99,,2013-06-18 17:22:00,
2013-06-18 11:33:00,74.0,13.0,-100.00,West,268,12.0,20.0,9,-99.99,,,-99.99,,2013-06-18 17:33:00,
2013-06-18 11:43:00,74.0,13.0,-100.00,West,268,12.0,20.0,9,-99.99,,,-99.99,,2013-06-18 17:43:00,
2013-06-18 12:01:00,76.0,14.0,-100.00,WSW,250,13.0,21.0,9,-99.99,,,-99.99,,2013-06-18 18:01:00,
2013-06-18 12:11:00,76.0,14.0,-100.00,WSW,250,13.0,21.0,9,-99.99,,,-99.99,,2013-06-18 18:11:00,
2013-06-18 12:22:00,76.0,15.0,-100.00,West,270,14.0,22.0,9,-99.99,,,-99.99,,2013-06-18 18:22:00,
2013-06-18 12:33:00,76.0,15.0,-100.00,West,270,14.0,22.0,9,-99.99,,,-99.99,,2013-06-18 18:33:00,
2013-06-18 12:42:00,76.0,13.0,-100.00,SW,217,12.0,19.0,8,-99.99,,,-99.99,,2013-06-18 18:42:00,
2013-06-18 12:53:00,76.0,13.0,-100.00,SW,217,12.0,19.0,8,-99.99,,,-99.99,,2013-06-18 18:53:00,
2013-06-18 13:01:00,78.0,14.0,-100.00,WSW,256,13.0,21.0,8,-99.99,,,-99.99,,2013-06-18 19:01:00,
2013-06-18 13:11:00,78.0,12.0,-100.00,WSW,254,19.0,28.0,8,-99.99,,,-99.99,,2013-06-18 19:11:00,
2013-06-18 13:22:00,77.0,8.0,-100.00,West,278,19.0,29.0,6,-99.99,,,-99.99,,2013-06-18 19:22:00,
2013-06-18 13:33:00,78.0,12.0,-100.00,West,274,15.0,27.0,7,-99.99,,,-99.99,,2013-06-18 19:33:00,
2013-06-18 13:43:00,79.0,11.0,-100.00,West,267,23.0,32.0,7,-99.99,,,-99.99,,2013-06-18 19:43:00,
2013-06-18 13:52:00,79.0,11.0,-100.00,West,267,23.0,32.0,7,-99.99,,,-99.99,,2013-06-18 19:52:00,
2013-06-18 14:01:00,79.0,12.0,-100.00,West,272,14.0,23.0,7,-99.99,,,-99.99,,2013-06-18 20:01:00,
2013-06-18 14:11:00,79.0,12.0,-100.00,WSW,250,16.0,30.0,7,-99.99,,,-99.99,,2013-06-18 20:11:00,
2013-06-18 14:22:00,78.0,10.0,-100.00,SSW,198,9.0,23.0,7,-99.99,,,-99.99,,2013-06-18 20:22:00,
2013-06-18 14:33:00,78.0,12.0,-100.00,West,276,12.0,29.0,7,-99.99,,,-99.99,,2013-06-18 20:33:00,
2013-06-18 14:43:00,80.0,12.0,-100.00,West,273,15.0,20.0,7,-99.99,,,-99.99,,2013-06-18 20:43:00,
2013-06-18 14:52:00,80.0,12.0,-100.00,West,273,15.0,20.0,7,-99.99,,,-99.99,,2013-06-18 20:52:00,
2013-06-18 15:01:00,79.0,11.0,-100.00,West,263,17.0,35.0,7,-99.99,,,-99.99,,2013-06-18 21:01:00,
2013-06-18 15:11:00,79.0,11.0,-100.00,West,275,19.0,27.0,7,-99.99,,,-99.99,,2013-06-18 21:11:00,
2013-06-18 15:22:00,80.0,11.0,-100.00,West,275,27.0,37.0,7,-99.99,,,-99.99,,2013-06-18 21:22:00,
2013-06-18 15:33:00,80.0,11.0,-100.00,West,275,27.0,37.0,7,-99.99,,,-99.99,,2013-06-18 21:33:00,
2013-06-18 15:43:00,81.0,11.0,-100.00,West,264,21.0,28.0,7,-99.99,,,-99.99,,2013-06-18 21:43:00,
2013-06-18 15:52:00,80.0,11.0,-100.00,West,271,23.0,33.0,7,-99.99,,,-99.99,,2013-06-18 21:52:00,
2013-06-18 16:01:00,79.0,9.0,-100.00,WNW,303,11.0,27.0,6,-99.99,,,-99.99,,2013-06-18 22:01:00,
2013-06-18 16:11:00,79.0,9.0,-100.00,WNW,303,11.0,27.0,6,-99.99,,,-99.99,,2013-06-18 22:11:00,
2013-06-18 16:22:00,79.0,10.0,-100.00,SW,215,11.0,30.0,6,-99.99,,,-99.99,,2013-06-18 22:22:00,
2013-06-18 16:34:00,79.0,10.0,-100.00,SE,126,7.0,31.0,7,-99.99,,,-99.99,,2013-06-18 22:34:00,
2013-06-18 16:42:00,80.0,11.0,-100.00,West,261,21.0,38.0,7,-99.99,,,-99.99,,2013-06-18 22:42:00,
2013-06-18 16:53:00,80.0,11.0,-100.00,West,261,21.0,38.0,7,-99.99,,,-99.99,,2013-06-18 22:53:00,
2013-06-18 17:01:00,80.0,11.0,-100.00,West,280,21.0,40.0,7,-99.99,,,-99.99,,2013-06-18 23:01:00,
2013-06-18 17:11:00,81.0,9.0,-100.00,West,265,21.0,31.0,6,-99.99,,,-99.99,,2013-06-18 23:11:00,
2013-06-18 17:23:00,80.0,11.0,-100.00,West,273,28.0,41.0,6,-99.99,,,-99.99,,2013-06-18 23:23:00,
2013-06-18 17:35:00,80.0,11.0,-100.00,West,273,28.0,41.0,6,-99.99,,,-99.99,,2013-06-18 23:35:00,
2013-06-18 17:44:00,81.0,10.0,-100.00,West,272,19.0,23.0,6,-99.99,,,-99.99,,2013-06-18 23:44:00,
2013-06-18 17:53:00,81.0,13.0,-100.00,West,265,13.0,22.0,7,-99.99,,,-99.99,,2013-06-18 23:53:00,
2013-06-18 18:01:00,81.0,11.0,-100.00,West,272,19.0,28.0,7,-99.99,,,-99.99,,2013-06-19 00:01:00,
2013-06-18 18:11:00,81.0,11.0,-100.00,WNW,289,18.0,31.0,7,-99.99,,,-99.99,,2013-06-19 00:11:00,
2013-06-18 18:22:00,80.0,11.0,-100.00,West,259,16.0,30.0,7,-99.99,,,-99.99,,2013-06-19 00:22:00,
2013-06-18 18:33:00,80.0,11.0,-100.00,West,259,16.0,30.0,7,-99.99,,,-99.99,,2013-06-19 00:33:00,
2013-06-18 18:43:00,81.0,12.0,-100.00,West,273,18.0,27.0,7,-99.99,,,-99.99,,2013-06-19 00:43:00,
2013-06-18 18:53:00,80.0,10.0,-100.00,West,272,22.0,39.0,6,-99.99,,,-99.99,,2013-06-19 00:53:00,
2013-06-18 19:01:00,80.0,10.0,-100.00,WSW,255,18.0,33.0,6,-99.99,,,-99.99,,2013-06-19 01:01:00,
2013-06-18 19:11:00,80.0,8.0,-100.00,West,270,21.0,39.0,6,-99.99,,,-99.99,,2013-06-19 01:11:00,
2013-06-18 19:22:00,80.0,10.0,-100.00,WSW,258,16.0,26.0,6,-99.99,,,-99.99,,2013-06-19 01:22:00,
2013-06-18 19:32:00,80.0,10.0,-100.00,WSW,258,16.0,26.0,6,-99.99,,,-99.99,,2013-06-19 01:32:00,
2013-06-18 19:42:00,79.0,9.0,-100.00,West,268,16.0,27.0,6,-99.99,,,-99.99,,2013-06-19 01:42:00,
2013-06-18 19:53:00,79.0,9.0,-100.00,West,268,16.0,27.0,6,-99.99,,,-99.99,,2013-06-19 01:53:00,
2013-06-18 20:01:00,79.0,9.0,-100.00,WSW,257,18.0,24.0,6,-99.99,,,-99.99,,2013-06-19 02:01:00,
2013-06-18 20:11:00,79.0,9.0,-100.00,West,264,18.0,36.0,6,-99.99,,,-99.99,,2013-06-19 02:11:00,
2013-06-18 20:21:00,79.0,9.0,-100.00,West,264,18.0,36.0,6,-99.99,,,-99.99,,2013-06-19 02:21:00,
2013-06-18 20:32:00,79.0,10.0,-100.00,WSW,239,19.0,28.0,7,-99.99,,,-99.99,,2013-06-19 02:32:00,
2013-06-18 20:42:00,78.0,9.0,-100.00,West,281,22.0,36.0,7,-99.99,,,-99.99,,2013-06-19 02:42:00,
2013-06-18 20:51:00,78.0,9.0,-100.00,West,271,24.0,29.0,7,-99.99,,,-99.99,,2013-06-19 02:51:00,
2013-06-18 21:01:00,78.0,9.0,-100.00,West,271,24.0,29.0,7,-99.99,,,-99.99,,2013-06-19 03:01:00,
2013-06-18 21:11:00,77.0,8.0,-100.00,West,270,20.0,28.0,7,-99.99,,,-99.99,,2013-06-19 03:11:00,
2013-06-18 21:21:00,76.0,8.0,-100.00,West,274,13.0,41.0,7,-99.99,,,-99.99,,2013-06-19 03:21:00,
2013-06-18 21:32:00,76.0,8.0,-100.00,West,274,13.0,41.0,7,-99.99,,,-99.99,,2013-06-19 03:32:00,
2013-06-18 21:42:00,75.0,9.0,-100.00,West,280,14.0,21.0,7,-99.99,,,-99.99,,2013-06-19 03:42:00,
2013-06-18 21:52:00,75.0,8.0,-100.00,SW,224,6.0,19.0,7,-99.99,,,-99.99,,2013-06-19 03:52:00,
2013-06-18 22:01:00,75.0,8.0,-100.00,WNW,283,13.0,22.0,7,-99.99,,,-99.99,,2013-06-19 04:01:00,
2013-06-18 22:11:00,74.0,8.0,-100.00,SW,217,4.0,9.0,7,-99.99,,,-99.99,,2013-06-19 04:11:00,
2013-06-18 22:22:00,74.0,9.0,-100.00,SSE,164,2.0,13.0,7,-99.99,,,-99.99,,2013-06-19 04:22:00,
2013-06-18 22:32:00,74.0,9.0,-100.00,SSW,196,5.0,10.0,8,-99.99,,,-99.99,,2013-06-19 04:32:00,
2013-06-18 22:42:00,73.0,9.0,-100.00,East,81,1.0,7.0,8,-99.99,,,-99.99,,2013-06-19 04:42:00,
2013-06-18 22:52:00,72.0,9.0,-100.00,NNW,330,4.0,9.0,8,-99.99,,,-99.99,,2013-06-19 04:52:00,
2013-06-18 23:01:00,73.0,9.0,-100.00,South,173,4.0,9.0,8,-99.99,,,-99.99,,2013-06-19 05:01:00,
2013-06-18 23:11:00,73.0,10.0,-100.00,South,181,6.0,21.0,8,-99.99,,,-99.99,,2013-06-19 05:11:00,
2013-06-18 23:22:00,73.0,9.0,-100.00,NE,55,1.0,6.0,8,-99.99,,,-99.99,,2013-06-19 05:22:00,
2013-06-18 23:32:00,72.0,9.0,-100.00,SSW,195,4.0,6.0,8,-99.99,,,-99.99,,2013-06-19 05:32:00,
2013-06-18 23:42:00,73.0,9.0,-100.00,West,268,15.0,22.0,8,-99.99,,,-99.99,,2013-06-19 05:42:00,
2013-06-18 23:52:00,73.0,10.0,-100.00,WNW,290,19.0,31.0,8,-99.99,,,-99.99,,2013-06-19 05:52:00,